User: anonymous   Login
Location: Darlington Observatory
(36.4817°N, 105.8156°W)
Time: 15:22:30
(UTC-07:00)
Language:

NOSS 3-3 (A) - Orbit

View from above orbital plane
View from above orbital plane
View from above satellite
View from above satellite

Ground track
Ground track

The orbit data is extracted from the following two-line orbital elements,

1 28537U 05004A   14348.12760400 0.00000000  00000-0  00000-0 0    07
2 28537  63.4307   2.1882 0190000 359.5384   0.4616 13.40661968    09
Epoch (UTC): 14 December 2014 03:03:44
Eccentricity: 0.0190000
inclination: 63.4307°
perigee height: 964 km
apogee height: 1249 km
right ascension of ascending node: 2.1882°
argument of perigee: 359.5384°
revolutions per day: 13.40661968
mean anomaly at epoch: 0.4616°
orbit number at epoch: 0

The dashed part of the orbit path shows where the satellite is in the earth's shadow,  

DLR